2020,11,26,00,00,00,147.4,,,,,,,,,,,,,,
2020,11,26,00,01,00,150.4,,,,,,,,,,,,,,
2020,11,26,00,02,00,154.8,,,,,,,,,,,,,,
2020,11,26,00,03,00,152.6,,,,,,,,,,,,,,
2020,11,26,00,04,00,152.5,,,,,,,,,,,,,,
2020,11,26,00,05,00,151.9,,,,,,,,,,,,,,
2020,11,26,00,06,00,146.6,,,,,,,,,,,,,,
2020,11,26,00,07,00,145.1,,,,,,,,,,,,,,
2020,11,26,00,08,00,150.8,,,,,,,,,,,,,,
2020,11,26,00,09,00,144.9,,,,,,,,,,,,,,
2020,11,26,00,10,00,141.2,,,,,,,,,,,,,,
2020,11,26,00,11,00,143.4,,,,,,,,,,,,,,
2020,11,26,00,12,00,145.7,,,,,,,,,,,,,,
2020,11,26,00,13,00,145.0,,,,,,,,,,,,,,
2020,11,26,00,14,00,146.7,,,,,,,,,,,,,,
2020,11,26,00,15,00,152.3,,,,,,,,,,,,,,
2020,11,26,00,16,00,149.2,,,,,,,,,,,,,,
2020,11,26,00,17,00,160.5,,,,,,,,,,,,,,
2020,11,26,00,18,00,163.6,,,,,,,,,,,,,,
2020,11,26,00,19,00,152.8,,,,,,,,,,,,,,
2020,11,26,00,20,00,175.1,,,,,,,,,,,,,,
2020,11,26,00,21,00,159.0,,,,,,,,,,,,,,
2020,11,26,00,22,00,163.8,,,,,,,,,,,,,,
2020,11,26,00,23,00,177.2,,,,,,,,,,,,,,
2020,11,26,00,24,00,159.5,,,,,,,,,,,,,,
2020,11,26,00,25,00,155.8,,,,,,,,,,,,,,
2020,11,26,00,26,00,160.0,,,,,,,,,,,,,,
2020,11,26,00,27,00,175.2,,,,,,,,,,,,,,
2020,11,26,00,28,00,178.9,,,,,,,,,,,,,,
2020,11,26,00,29,00,167.0,,,,,,,,,,,,,,
2020,11,26,00,30,00,157.7,,,,,,,,,,,,,,
2020,11,26,00,31,00,155.8,,,,,,,,,,,,,,
2020,11,26,00,32,00,155.6,,,,,,,,,,,,,,
2020,11,26,00,33,00,175.9,,,,,,,,,,,,,,
2020,11,26,00,34,00,208.4,,,,,,,,,,,,,,
2020,11,26,00,35,00,190.5,,,,,,,,,,,,,,
2020,11,26,00,36,00,156.9,,,,,,,,,,,,,,
2020,11,26,00,37,00,156.3,,,,,,,,,,,,,,
2020,11,26,00,38,00,158.5,,,,,,,,,,,,,,
2020,11,26,00,39,00,141.6,,,,,,,,,,,,,,
2020,11,26,00,40,00,139.1,,,,,,,,,,,,,,
2020,11,26,00,41,00,137.9,,,,,,,,,,,,,,
2020,11,26,00,42,00,142.4,,,,,,,,,,,,,,
2020,11,26,00,43,00,144.8,,,,,,,,,,,,,,
2020,11,26,00,44,00,147.5,,,,,,,,,,,,,,
2020,11,26,00,45,00,137.2,,,,,,,,,,,,,,
2020,11,26,00,46,00,136.6,,,,,,,,,,,,,,
2020,11,26,00,47,00,137.4,,,,,,,,,,,,,,
2020,11,26,00,48,00,136.4,,,,,,,,,,,,,,
2020,11,26,00,49,00,138.1,,,,,,,,,,,,,,
2020,11,26,00,50,00,148.0,,,,,,,,,,,,,,
2020,11,26,00,51,00,162.6,,,,,,,,,,,,,,
2020,11,26,00,52,00,147.1,,,,,,,,,,,,,,
2020,11,26,00,53,00,141.8,,,,,,,,,,,,,,
2020,11,26,00,54,00,134.3,,,,,,,,,,,,,,
2020,11,26,00,55,00,133.7,,,,,,,,,,,,,,
2020,11,26,00,56,00,147.1,,,,,,,,,,,,,,
2020,11,26,00,57,00,162.0,,,,,,,,,,,,,,
2020,11,26,00,58,00,144.8,,,,,,,,,,,,,,
2020,11,26,00,59,00,154.0,,,,,,,,,,,,,,
2020,11,26,01,00,00,155.7,,,,,,,,,,,,,,
2020,11,26,01,01,00,150.0,,,,,,,,,,,,,,
2020,11,26,01,02,00,150.8,,,,,,,,,,,,,,
2020,11,26,01,03,00,151.2,,,,,,,,,,,,,,
2020,11,26,01,04,00,160.8,,,,,,,,,,,,,,
2020,11,26,01,05,00,146.0,,,,,,,,,,,,,,
2020,11,26,01,06,00,147.1,,,,,,,,,,,,,,
2020,11,26,01,07,00,167.9,,,,,,,,,,,,,,
2020,11,26,01,08,00,163.7,,,,,,,,,,,,,,
2020,11,26,01,09,00,159.4,,,,,,,,,,,,,,
2020,11,26,01,10,00,152.1,,,,,,,,,,,,,,
2020,11,26,01,11,00,150.4,,,,,,,,,,,,,,
2020,11,26,01,12,00,150.8,,,,,,,,,,,,,,
2020,11,26,01,13,00,172.3,,,,,,,,,,,,,,
2020,11,26,01,14,00,174.9,,,,,,,,,,,,,,
2020,11,26,01,15,00,152.7,,,,,,,,,,,,,,
2020,11,26,01,16,00,147.4,,,,,,,,,,,,,,
2020,11,26,01,17,00,143.8,,,,,,,,,,,,,,
2020,11,26,01,18,00,137.6,,,,,,,,,,,,,,
2020,11,26,01,19,00,134.2,,,,,,,,,,,,,,
2020,11,26,01,20,00,134.0,,,,,,,,,,,,,,
2020,11,26,01,21,00,140.0,,,,,,,,,,,,,,
2020,11,26,01,22,00,149.5,,,,,,,,,,,,,,
2020,11,26,01,23,00,141.1,,,,,,,,,,,,,,
2020,11,26,01,24,00,135.1,,,,,,,,,,,,,,
2020,11,26,01,25,00,145.3,,,,,,,,,,,,,,
2020,11,26,01,26,00,149.1,,,,,,,,,,,,,,
2020,11,26,01,27,00,144.6,,,,,,,,,,,,,,
2020,11,26,01,28,00,147.1,,,,,,,,,,,,,,
2020,11,26,01,29,00,135.9,,,,,,,,,,,,,,
2020,11,26,01,30,00,144.1,,,,,,,,,,,,,,
2020,11,26,01,31,00,150.4,,,,,,,,,,,,,,
2020,11,26,01,32,00,148.4,,,,,,,,,,,,,,
2020,11,26,01,33,00,158.7,,,,,,,,,,,,,,
2020,11,26,01,34,00,179.7,,,,,,,,,,,,,,
2020,11,26,01,35,00,184.9,,,,,,,,,,,,,,
2020,11,26,01,36,00,150.7,,,,,,,,,,,,,,
2020,11,26,01,37,00,152.3,,,,,,,,,,,,,,
2020,11,26,01,38,00,153.6,,,,,,,,,,,,,,
2020,11,26,01,39,00,138.4,,,,,,,,,,,,,,
2020,11,26,01,40,00,141.5,,,,,,,,,,,,,,
2020,11,26,01,41,00,148.1,,,,,,,,,,,,,,
2020,11,26,01,42,00,149.6,,,,,,,,,,,,,,
2020,11,26,01,43,00,148.3,,,,,,,,,,,,,,
2020,11,26,01,44,00,150.4,,,,,,,,,,,,,,
2020,11,26,01,45,00,150.6,,,,,,,,,,,,,,
2020,11,26,01,46,00,147.4,,,,,,,,,,,,,,
2020,11,26,01,47,00,151.2,,,,,,,,,,,,,,
2020,11,26,01,48,00,148.3,,,,,,,,,,,,,,
2020,11,26,01,49,00,148.3,,,,,,,,,,,,,,
2020,11,26,01,50,00,149.1,,,,,,,,,,,,,,
2020,11,26,01,51,00,151.5,,,,,,,,,,,,,,
2020,11,26,01,52,00,143.1,,,,,,,,,,,,,,
2020,11,26,01,53,00,141.8,,,,,,,,,,,,,,
2020,11,26,01,54,00,139.6,,,,,,,,,,,,,,
2020,11,26,01,55,00,142.8,,,,,,,,,,,,,,
2020,11,26,01,56,00,141.4,,,,,,,,,,,,,,
2020,11,26,01,57,00,140.8,,,,,,,,,,,,,,
2020,11,26,01,58,00,142.8,,,,,,,,,,,,,,
2020,11,26,01,59,00,149.7,,,,,,,,,,,,,,
2020,11,26,02,00,00,139.6,,,,,,,,,,,,,,
2020,11,26,02,01,00,146.9,,,,,,,,,,,,,,
2020,11,26,02,02,00,141.6,,,,,,,,,,,,,,
2020,11,26,02,03,00,141.4,,,,,,,,,,,,,,
2020,11,26,02,04,00,149.8,,,,,,,,,,,,,,
2020,11,26,02,05,00,152.2,,,,,,,,,,,,,,
2020,11,26,02,06,00,159.4,,,,,,,,,,,,,,
2020,11,26,02,07,00,159.2,,,,,,,,,,,,,,
2020,11,26,02,08,00,141.7,,,,,,,,,,,,,,
2020,11,26,02,09,00,134.2,,,,,,,,,,,,,,
2020,11,26,02,10,00,133.1,,,,,,,,,,,,,,
2020,11,26,02,11,00,135.0,,,,,,,,,,,,,,
2020,11,26,02,12,00,137.7,,,,,,,,,,,,,,
2020,11,26,02,13,00,148.3,,,,,,,,,,,,,,
2020,11,26,02,14,00,145.0,,,,,,,,,,,,,,
2020,11,26,02,15,00,140.3,,,,,,,,,,,,,,
2020,11,26,02,16,00,129.1,,,,,,,,,,,,,,
2020,11,26,02,17,00,128.5,,,,,,,,,,,,,,
2020,11,26,02,18,00,128.3,,,,,,,,,,,,,,
2020,11,26,02,19,00,130.4,,,,,,,,,,,,,,
2020,11,26,02,20,00,137.6,,,,,,,,,,,,,,
2020,11,26,02,21,00,136.4,,,,,,,,,,,,,,
2020,11,26,02,22,00,140.6,,,,,,,,,,,,,,
2020,11,26,02,23,00,137.8,,,,,,,,,,,,,,
2020,11,26,02,24,00,135.3,,,,,,,,,,,,,,
2020,11,26,02,25,00,131.2,,,,,,,,,,,,,,
2020,11,26,02,26,00,134.3,,,,,,,,,,,,,,
2020,11,26,02,27,00,131.1,,,,,,,,,,,,,,
2020,11,26,02,28,00,140.5,,,,,,,,,,,,,,
2020,11,26,02,29,00,150.0,,,,,,,,,,,,,,
2020,11,26,02,30,00,147.6,,,,,,,,,,,,,,
2020,11,26,02,31,00,137.3,,,,,,,,,,,,,,
2020,11,26,02,32,00,143.1,,,,,,,,,,,,,,
2020,11,26,02,33,00,140.5,,,,,,,,,,,,,,
2020,11,26,02,34,00,137.7,,,,,,,,,,,,,,
2020,11,26,02,35,00,144.8,,,,,,,,,,,,,,
2020,11,26,02,36,00,143.2,,,,,,,,,,,,,,
2020,11,26,02,37,00,135.3,,,,,,,,,,,,,,
2020,11,26,02,38,00,133.7,,,,,,,,,,,,,,
2020,11,26,02,39,00,132.5,,,,,,,,,,,,,,
2020,11,26,02,40,00,126.8,,,,,,,,,,,,,,
2020,11,26,02,41,00,132.8,,,,,,,,,,,,,,
2020,11,26,02,42,00,131.9,,,,,,,,,,,,,,
2020,11,26,02,43,00,136.5,,,,,,,,,,,,,,
2020,11,26,02,44,00,129.9,,,,,,,,,,,,,,
2020,11,26,02,45,00,129.5,,,,,,,,,,,,,,
2020,11,26,02,46,00,129.5,,,,,,,,,,,,,,
2020,11,26,02,47,00,129.2,,,,,,,,,,,,,,
2020,11,26,02,48,00,133.7,,,,,,,,,,,,,,
2020,11,26,02,49,00,136.9,,,,,,,,,,,,,,
2020,11,26,02,50,00,135.2,,,,,,,,,,,,,,
2020,11,26,02,51,00,136.0,,,,,,,,,,,,,,
2020,11,26,02,52,00,136.9,,,,,,,,,,,,,,
2020,11,26,02,53,00,133.3,,,,,,,,,,,,,,
2020,11,26,02,54,00,131.9,,,,,,,,,,,,,,
2020,11,26,02,55,00,129.7,,,,,,,,,,,,,,
2020,11,26,02,56,00,127.5,,,,,,,,,,,,,,
2020,11,26,02,57,00,130.8,,,,,,,,,,,,,,
2020,11,26,02,58,00,136.6,,,,,,,,,,,,,,
2020,11,26,02,59,00,148.1,,,,,,,,,,,,,,
2020,11,26,03,00,00,151.0,,,,,,,,,,,,,,
2020,11,26,03,01,00,145.4,,,,,,,,,,,,,,
2020,11,26,03,02,00,144.8,,,,,,,,,,,,,,
2020,11,26,03,03,00,144.6,,,,,,,,,,,,,,
2020,11,26,03,04,00,145.8,,,,,,,,,,,,,,
2020,11,26,03,05,00,142.2,,,,,,,,,,,,,,
2020,11,26,03,06,00,137.9,,,,,,,,,,,,,,
2020,11,26,03,07,00,141.4,,,,,,,,,,,,,,
2020,11,26,03,08,00,150.4,,,,,,,,,,,,,,
2020,11,26,03,09,00,144.5,,,,,,,,,,,,,,
2020,11,26,03,10,00,140.1,,,,,,,,,,,,,,
2020,11,26,03,11,00,135.2,,,,,,,,,,,,,,
2020,11,26,03,12,00,139.5,,,,,,,,,,,,,,
2020,11,26,03,13,00,142.7,,,,,,,,,,,,,,
2020,11,26,03,14,00,135.3,,,,,,,,,,,,,,
2020,11,26,03,15,00,145.6,,,,,,,,,,,,,,
2020,11,26,03,16,00,143.2,,,,,,,,,,,,,,
2020,11,26,03,17,00,140.2,,,,,,,,,,,,,,
2020,11,26,03,18,00,140.7,,,,,,,,,,,,,,
2020,11,26,03,19,00,143.5,,,,,,,,,,,,,,
2020,11,26,03,20,00,138.8,,,,,,,,,,,,,,
2020,11,26,03,21,00,127.0,,,,,,,,,,,,,,
2020,11,26,03,22,00,134.7,,,,,,,,,,,,,,
2020,11,26,03,23,00,135.9,,,,,,,,,,,,,,
2020,11,26,03,24,00,140.8,,,,,,,,,,,,,,
2020,11,26,03,25,00,139.0,,,,,,,,,,,,,,
2020,11,26,03,26,00,127.2,,,,,,,,,,,,,,
2020,11,26,03,27,00,126.5,,,,,,,,,,,,,,
2020,11,26,03,28,00,126.8,,,,,,,,,,,,,,
2020,11,26,03,29,00,126.4,,,,,,,,,,,,,,
2020,11,26,03,30,00,138.3,,,,,,,,,,,,,,
2020,11,26,03,31,00,135.8,,,,,,,,,,,,,,
2020,11,26,03,32,00,130.8,,,,,,,,,,,,,,
2020,11,26,03,33,00,129.4,,,,,,,,,,,,,,
2020,11,26,03,34,00,133.6,,,,,,,,,,,,,,
2020,11,26,03,35,00,131.1,,,,,,,,,,,,,,
2020,11,26,03,36,00,124.0,,,,,,,,,,,,,,
2020,11,26,03,37,00,123.3,,,,,,,,,,,,,,
2020,11,26,03,38,00,124.8,,,,,,,,,,,,,,
2020,11,26,03,39,00,136.8,,,,,,,,,,,,,,
2020,11,26,03,40,00,149.8,,,,,,,,,,,,,,
2020,11,26,03,41,00,134.7,,,,,,,,,,,,,,
2020,11,26,03,42,00,126.7,,,,,,,,,,,,,,
2020,11,26,03,43,00,138.2,,,,,,,,,,,,,,
2020,11,26,03,44,00,132.0,,,,,,,,,,,,,,
2020,11,26,03,45,00,127.7,,,,,,,,,,,,,,
2020,11,26,03,46,00,132.4,,,,,,,,,,,,,,
2020,11,26,03,47,00,123.4,,,,,,,,,,,,,,
2020,11,26,03,48,00,123.0,,,,,,,,,,,,,,
2020,11,26,03,49,00,123.6,,,,,,,,,,,,,,
2020,11,26,03,50,00,123.7,,,,,,,,,,,,,,
2020,11,26,03,51,00,121.6,,,,,,,,,,,,,,
2020,11,26,03,52,00,137.5,,,,,,,,,,,,,,
2020,11,26,03,53,00,125.9,,,,,,,,,,,,,,
2020,11,26,03,54,00,130.0,,,,,,,,,,,,,,
2020,11,26,03,55,00,127.5,,,,,,,,,,,,,,
2020,11,26,03,56,00,130.5,,,,,,,,,,,,,,
2020,11,26,03,57,00,127.2,,,,,,,,,,,,,,
2020,11,26,03,58,00,135.0,,,,,,,,,,,,,,
2020,11,26,03,59,00,135.5,,,,,,,,,,,,,,
2020,11,26,04,00,00,130.4,,,,,,,,,,,,,,
2020,11,26,04,01,00,130.1,,,,,,,,,,,,,,
2020,11,26,04,02,00,134.2,,,,,,,,,,,,,,
2020,11,26,04,03,00,135.3,,,,,,,,,,,,,,
2020,11,26,04,04,00,128.0,,,,,,,,,,,,,,
2020,11,26,04,05,00,126.8,,,,,,,,,,,,,,
2020,11,26,04,06,00,124.3,,,,,,,,,,,,,,
2020,11,26,04,07,00,124.6,,,,,,,,,,,,,,
2020,11,26,04,08,00,126.7,,,,,,,,,,,,,,
2020,11,26,04,09,00,130.0,,,,,,,,,,,,,,
2020,11,26,04,10,00,132.9,,,,,,,,,,,,,,
2020,11,26,04,11,00,128.4,,,,,,,,,,,,,,
2020,11,26,04,12,00,126.8,,,,,,,,,,,,,,
2020,11,26,04,13,00,127.0,,,,,,,,,,,,,,
2020,11,26,04,14,00,127.0,,,,,,,,,,,,,,
2020,11,26,04,15,00,126.3,,,,,,,,,,,,,,
2020,11,26,04,16,00,137.2,,,,,,,,,,,,,,
2020,11,26,04,17,00,137.0,,,,,,,,,,,,,,
2020,11,26,04,18,00,133.6,,,,,,,,,,,,,,
2020,11,26,04,19,00,131.0,,,,,,,,,,,,,,
2020,11,26,04,20,00,126.7,,,,,,,,,,,,,,
2020,11,26,04,21,00,126.9,,,,,,,,,,,,,,
2020,11,26,04,22,00,131.4,,,,,,,,,,,,,,
2020,11,26,04,23,00,136.1,,,,,,,,,,,,,,
2020,11,26,04,24,00,137.1,,,,,,,,,,,,,,
2020,11,26,04,25,00,136.7,,,,,,,,,,,,,,
2020,11,26,04,26,00,131.0,,,,,,,,,,,,,,
2020,11,26,04,27,00,128.9,,,,,,,,,,,,,,
2020,11,26,04,28,00,133.6,,,,,,,,,,,,,,
2020,11,26,04,29,00,143.7,,,,,,,,,,,,,,
2020,11,26,04,30,00,145.8,,,,,,,,,,,,,,
2020,11,26,04,31,00,143.6,,,,,,,,,,,,,,
2020,11,26,04,32,00,145.6,,,,,,,,,,,,,,
2020,11,26,04,33,00,142.2,,,,,,,,,,,,,,
2020,11,26,04,34,00,143.7,,,,,,,,,,,,,,
2020,11,26,04,35,00,137.0,,,,,,,,,,,,,,
2020,11,26,04,36,00,136.2,,,,,,,,,,,,,,
2020,11,26,04,37,00,138.0,,,,,,,,,,,,,,
2020,11,26,04,38,00,135.5,,,,,,,,,,,,,,
2020,11,26,04,39,00,133.6,,,,,,,,,,,,,,
2020,11,26,04,40,00,128.6,,,,,,,,,,,,,,
2020,11,26,04,41,00,127.4,,,,,,,,,,,,,,
2020,11,26,04,42,00,126.4,,,,,,,,,,,,,,
2020,11,26,04,43,00,126.3,,,,,,,,,,,,,,
2020,11,26,04,44,00,127.7,,,,,,,,,,,,,,
2020,11,26,04,45,00,140.2,,,,,,,,,,,,,,
2020,11,26,04,46,00,141.3,,,,,,,,,,,,,,
2020,11,26,04,47,00,147.9,,,,,,,,,,,,,,
2020,11,26,04,48,00,138.2,,,,,,,,,,,,,,
2020,11,26,04,49,00,131.6,,,,,,,,,,,,,,
2020,11,26,04,50,00,128.7,,,,,,,,,,,,,,
2020,11,26,04,51,00,129.2,,,,,,,,,,,,,,
2020,11,26,04,52,00,130.3,,,,,,,,,,,,,,
2020,11,26,04,53,00,130.9,,,,,,,,,,,,,,
2020,11,26,04,54,00,134.3,,,,,,,,,,,,,,
2020,11,26,04,55,00,142.6,,,,,,,,,,,,,,
2020,11,26,04,56,00,148.1,,,,,,,,,,,,,,
2020,11,26,04,57,00,143.5,,,,,,,,,,,,,,
2020,11,26,04,58,00,137.6,,,,,,,,,,,,,,
2020,11,26,04,59,00,130.6,,,,,,,,,,,,,,
2020,11,26,05,00,00,130.7,,,,,,,,,,,,,,
2020,11,26,05,01,00,134.8,,,,,,,,,,,,,,
2020,11,26,05,02,00,140.1,,,,,,,,,,,,,,
2020,11,26,05,03,00,140.5,,,,,,,,,,,,,,
2020,11,26,05,04,00,142.8,,,,,,,,,,,,,,
2020,11,26,05,05,00,145.2,,,,,,,,,,,,,,
2020,11,26,05,06,00,149.9,,,,,,,,,,,,,,
2020,11,26,05,07,00,150.6,,,,,,,,,,,,,,
2020,11,26,05,08,00,141.2,,,,,,,,,,,,,,
2020,11,26,05,09,00,145.0,,,,,,,,,,,,,,
2020,11,26,05,10,00,148.8,,,,,,,,,,,,,,
2020,11,26,05,11,00,147.1,,,,,,,,,,,,,,
2020,11,26,05,12,00,144.9,,,,,,,,,,,,,,
2020,11,26,05,13,00,141.1,,,,,,,,,,,,,,
2020,11,26,05,14,00,141.8,,,,,,,,,,,,,,
2020,11,26,05,15,00,139.7,,,,,,,,,,,,,,
2020,11,26,05,16,00,146.0,,,,,,,,,,,,,,
2020,11,26,05,17,00,154.3,,,,,,,,,,,,,,
2020,11,26,05,18,00,163.3,,,,,,,,,,,,,,
2020,11,26,05,19,00,153.4,,,,,,,,,,,,,,
2020,11,26,05,20,00,152.1,,,,,,,,,,,,,,
2020,11,26,05,21,00,148.7,,,,,,,,,,,,,,
2020,11,26,05,22,00,151.0,,,,,,,,,,,,,,
2020,11,26,05,23,00,148.2,,,,,,,,,,,,,,
2020,11,26,05,24,00,151.5,,,,,,,,,,,,,,
2020,11,26,05,25,00,152.0,,,,,,,,,,,,,,
2020,11,26,05,26,00,150.7,,,,,,,,,,,,,,
2020,11,26,05,27,00,140.1,,,,,,,,,,,,,,
2020,11,26,05,28,00,138.5,,,,,,,,,,,,,,
2020,11,26,05,29,00,139.3,,,,,,,,,,,,,,
2020,11,26,05,30,00,141.8,,,,,,,,,,,,,,
2020,11,26,05,31,00,149.6,,,,,,,,,,,,,,
2020,11,26,05,32,00,151.8,,,,,,,,,,,,,,
2020,11,26,05,33,00,147.1,,,,,,,,,,,,,,
2020,11,26,05,34,00,142.2,,,,,,,,,,,,,,
2020,11,26,05,35,00,141.0,,,,,,,,,,,,,,
2020,11,26,05,36,00,147.2,,,,,,,,,,,,,,
2020,11,26,05,37,00,147.4,,,,,,,,,,,,,,
2020,11,26,05,38,00,142.5,,,,,,,,,,,,,,
2020,11,26,05,39,00,142.2,,,,,,,,,,,,,,
2020,11,26,05,40,00,146.6,,,,,,,,,,,,,,
2020,11,26,05,41,00,151.2,,,,,,,,,,,,,,
2020,11,26,05,42,00,155.7,,,,,,,,,,,,,,
2020,11,26,05,43,00,151.2,,,,,,,,,,,,,,
2020,11,26,05,44,00,151.6,,,,,,,,,,,,,,
2020,11,26,05,45,00,148.7,,,,,,,,,,,,,,
2020,11,26,05,46,00,157.2,,,,,,,,,,,,,,
2020,11,26,05,47,00,161.2,,,,,,,,,,,,,,
2020,11,26,05,48,00,153.8,,,,,,,,,,,,,,
2020,11,26,05,49,00,155.3,,,,,,,,,,,,,,
2020,11,26,05,50,00,152.3,,,,,,,,,,,,,,
2020,11,26,05,51,00,155.2,,,,,,,,,,,,,,
2020,11,26,05,52,00,159.6,,,,,,,,,,,,,,
2020,11,26,05,53,00,155.7,,,,,,,,,,,,,,
2020,11,26,05,54,00,152.2,,,,,,,,,,,,,,
2020,11,26,05,55,00,151.9,,,,,,,,,,,,,,
2020,11,26,05,56,00,153.6,,,,,,,,,,,,,,
2020,11,26,05,57,00,153.4,,,,,,,,,,,,,,
2020,11,26,05,58,00,166.7,,,,,,,,,,,,,,
2020,11,26,05,59,00,174.9,,,,,,,,,,,,,,
2020,11,26,06,00,00,163.5,,,,,,,,,,,,,,
2020,11,26,06,01,00,155.2,,,,,,,,,,,,,,
2020,11,26,06,02,00,152.2,,,,,,,,,,,,,,
2020,11,26,06,03,00,156.0,,,,,,,,,,,,,,
2020,11,26,06,04,00,162.1,,,,,,,,,,,,,,
2020,11,26,06,05,00,152.7,,,,,,,,,,,,,,
2020,11,26,06,06,00,151.1,,,,,,,,,,,,,,
2020,11,26,06,07,00,150.9,,,,,,,,,,,,,,
2020,11,26,06,08,00,150.8,,,,,,,,,,,,,,
2020,11,26,06,09,00,151.1,,,,,,,,,,,,,,
2020,11,26,06,10,00,151.6,,,,,,,,,,,,,,
2020,11,26,06,11,00,152.6,,,,,,,,,,,,,,
2020,11,26,06,12,00,150.9,,,,,,,,,,,,,,
2020,11,26,06,13,00,152.0,,,,,,,,,,,,,,
2020,11,26,06,14,00,152.1,,,,,,,,,,,,,,
2020,11,26,06,15,00,151.8,,,,,,,,,,,,,,
2020,11,26,06,16,00,151.2,,,,,,,,,,,,,,
2020,11,26,06,17,00,151.8,,,,,,,,,,,,,,
2020,11,26,06,18,00,152.4,,,,,,,,,,,,,,
2020,11,26,06,19,00,151.7,,,,,,,,,,,,,,
2020,11,26,06,20,00,151.2,,,,,,,,,,,,,,
2020,11,26,06,21,00,151.8,,,,,,,,,,,,,,
2020,11,26,06,22,00,153.3,,,,,,,,,,,,,,
2020,11,26,06,23,00,152.2,,,,,,,,,,,,,,
2020,11,26,06,24,00,152.1,,,,,,,,,,,,,,
2020,11,26,06,25,00,155.9,,,,,,,,,,,,,,
2020,11,26,06,26,00,160.9,,,,,,,,,,,,,,
2020,11,26,06,27,00,175.6,,,,,,,,,,,,,,
2020,11,26,06,28,00,159.5,,,,,,,,,,,,,,
2020,11,26,06,29,00,157.4,,,,,,,,,,,,,,
2020,11,26,06,30,00,,,,,,,,,,,,,,,
2020,11,26,06,31,00,,,,,,,,,,,,,,,
2020,11,26,06,32,00,,,,,,,,,,,,,,,
2020,11,26,06,33,00,,,,,,,,,,,,,,,
2020,11,26,06,34,00,,,,,,,,,,,,,,,
2020,11,26,06,35,00,,,,,,,,,,,,,,,
2020,11,26,06,36,00,,,,,,,,,,,,,,,
2020,11,26,06,37,00,,,,,,,,,,,,,,,
2020,11,26,06,38,00,,,,,,,,,,,,,,,
2020,11,26,06,39,00,,,,,,,,,,,,,,,
2020,11,26,06,40,00,,,,,,,,,,,,,,,
2020,11,26,06,41,00,,,,,,,,,,,,,,,
2020,11,26,06,42,00,,,,,,,,,,,,,,,
2020,11,26,06,43,00,,,,,,,,,,,,,,,
2020,11,26,06,44,00,,,,,,,,,,,,,,,
2020,11,26,06,45,00,,,,,,,,,,,,,,,
2020,11,26,06,46,00,,,,,,,,,,,,,,,
2020,11,26,06,47,00,,,,,,,,,,,,,,,
2020,11,26,06,48,00,,,,,,,,,,,,,,,
2020,11,26,06,49,00,,,,,,,,,,,,,,,
2020,11,26,06,50,00,,,,,,,,,,,,,,,
2020,11,26,06,51,00,,,,,,,,,,,,,,,
2020,11,26,06,52,00,,,,,,,,,,,,,,,
2020,11,26,06,53,00,,,,,,,,,,,,,,,
2020,11,26,06,54,00,,,,,,,,,,,,,,,
2020,11,26,06,55,00,,,,,,,,,,,,,,,
2020,11,26,06,56,00,,,,,,,,,,,,,,,
2020,11,26,06,57,00,,,,,,,,,,,,,,,
2020,11,26,06,58,00,,,,,,,,,,,,,,,
2020,11,26,06,59,00,,,,,,,,,,,,,,,
2020,11,26,07,00,00,,,,,,,,,,,,,,,
2020,11,26,07,01,00,,,,,,,,,,,,,,,
2020,11,26,07,02,00,,,,,,,,,,,,,,,
2020,11,26,07,03,00,,,,,,,,,,,,,,,
2020,11,26,07,04,00,,,,,,,,,,,,,,,
2020,11,26,07,05,00,,,,,,,,,,,,,,,
2020,11,26,07,06,00,,,,,,,,,,,,,,,
2020,11,26,07,07,00,,,,,,,,,,,,,,,
2020,11,26,07,08,00,,,,,,,,,,,,,,,
2020,11,26,07,09,00,,,,,,,,,,,,,,,
2020,11,26,07,10,00,,,,,,,,,,,,,,,
2020,11,26,07,11,00,,,,,,,,,,,,,,,
2020,11,26,07,12,00,,,,,,,,,,,,,,,
2020,11,26,07,13,00,,,,,,,,,,,,,,,
2020,11,26,07,14,00,,,,,,,,,,,,,,,
2020,11,26,07,15,00,,,,,,,,,,,,,,,
2020,11,26,07,16,00,,,,,,,,,,,,,,,
2020,11,26,07,17,00,,,,,,,,,,,,,,,
2020,11,26,07,18,00,,,,,,,,,,,,,,,
2020,11,26,07,19,00,,,,,,,,,,,,,,,
2020,11,26,07,20,00,,,,,,,,,,,,,,,
2020,11,26,07,21,00,,,,,,,,,,,,,,,
2020,11,26,07,22,00,,,,,,,,,,,,,,,
2020,11,26,07,23,00,,,,,,,,,,,,,,,
2020,11,26,07,24,00,,,,,,,,,,,,,,,
2020,11,26,07,25,00,,,,,,,,,,,,,,,
2020,11,26,07,26,00,,,,,,,,,,,,,,,
2020,11,26,07,27,00,,,,,,,,,,,,,,,
2020,11,26,07,28,00,,,,,,,,,,,,,,,
2020,11,26,07,29,00,,,,,,,,,,,,,,,
2020,11,26,07,30,00,,,,,,,,,,,,,,,
2020,11,26,07,31,00,,,,,,,,,,,,,,,
2020,11,26,07,32,00,,,,,,,,,,,,,,,
2020,11,26,07,33,00,,,,,,,,,,,,,,,
2020,11,26,07,34,00,,,,,,,,,,,,,,,
2020,11,26,07,35,00,,,,,,,,,,,,,,,
2020,11,26,07,36,00,,,,,,,,,,,,,,,
2020,11,26,07,37,00,,,,,,,,,,,,,,,
2020,11,26,07,38,00,,,,,,,,,,,,,,,
2020,11,26,07,39,00,,,,,,,,,,,,,,,
2020,11,26,07,40,00,,,,,,,,,,,,,,,
2020,11,26,07,41,00,,,,,,,,,,,,,,,
2020,11,26,07,42,00,,,,,,,,,,,,,,,
2020,11,26,07,43,00,,,,,,,,,,,,,,,
2020,11,26,07,44,00,,,,,,,,,,,,,,,
2020,11,26,07,45,00,,,,,,,,,,,,,,,
2020,11,26,07,46,00,,,,,,,,,,,,,,,
2020,11,26,07,47,00,,,,,,,,,,,,,,,
2020,11,26,07,48,00,,,,,,,,,,,,,,,
2020,11,26,07,49,00,,,,,,,,,,,,,,,
2020,11,26,07,50,00,,,,,,,,,,,,,,,
2020,11,26,07,51,00,,,,,,,,,,,,,,,
2020,11,26,07,52,00,,,,,,,,,,,,,,,
2020,11,26,07,53,00,,,,,,,,,,,,,,,
2020,11,26,07,54,00,,,,,,,,,,,,,,,
2020,11,26,07,55,00,,,,,,,,,,,,,,,
2020,11,26,07,56,00,,,,,,,,,,,,,,,
2020,11,26,07,57,00,,,,,,,,,,,,,,,
2020,11,26,07,58,00,,,,,,,,,,,,,,,
2020,11,26,07,59,00,,,,,,,,,,,,,,,
2020,11,26,08,00,00,,,,,,,,,,,,,,,
2020,11,26,08,01,00,,,,,,,,,,,,,,,
2020,11,26,08,02,00,,,,,,,,,,,,,,,
2020,11,26,08,03,00,,,,,,,,,,,,,,,
2020,11,26,08,04,00,,,,,,,,,,,,,,,
2020,11,26,08,05,00,,,,,,,,,,,,,,,
2020,11,26,08,06,00,,,,,,,,,,,,,,,
2020,11,26,08,07,00,,,,,,,,,,,,,,,
2020,11,26,08,08,00,,,,,,,,,,,,,,,
2020,11,26,08,09,00,,,,,,,,,,,,,,,
2020,11,26,08,10,00,,,,,,,,,,,,,,,
2020,11,26,08,11,00,,,,,,,,,,,,,,,
2020,11,26,08,12,00,,,,,,,,,,,,,,,
2020,11,26,08,13,00,,,,,,,,,,,,,,,
2020,11,26,08,14,00,,,,,,,,,,,,,,,
2020,11,26,08,15,00,,,,,,,,,,,,,,,
2020,11,26,08,16,00,,,,,,,,,,,,,,,
2020,11,26,08,17,00,,,,,,,,,,,,,,,
2020,11,26,08,18,00,,,,,,,,,,,,,,,
2020,11,26,08,19,00,,,,,,,,,,,,,,,
2020,11,26,08,20,00,,,,,,,,,,,,,,,
2020,11,26,08,21,00,,,,,,,,,,,,,,,
2020,11,26,08,22,00,,,,,,,,,,,,,,,
2020,11,26,08,23,00,,,,,,,,,,,,,,,
2020,11,26,08,24,00,,,,,,,,,,,,,,,
2020,11,26,08,25,00,,,,,,,,,,,,,,,
2020,11,26,08,26,00,,,,,,,,,,,,,,,
2020,11,26,08,27,00,,,,,,,,,,,,,,,
2020,11,26,08,28,00,,,,,,,,,,,,,,,
2020,11,26,08,29,00,,,,,,,,,,,,,,,
2020,11,26,08,30,00,,,,,,,,,,,,,,,
2020,11,26,08,31,00,,,,,,,,,,,,,,,
2020,11,26,08,32,00,,,,,,,,,,,,,,,
2020,11,26,08,33,00,,,,,,,,,,,,,,,
2020,11,26,08,34,00,,,,,,,,,,,,,,,
2020,11,26,08,35,00,,,,,,,,,,,,,,,
2020,11,26,08,36,00,,,,,,,,,,,,,,,
2020,11,26,08,37,00,,,,,,,,,,,,,,,
2020,11,26,08,38,00,,,,,,,,,,,,,,,
2020,11,26,08,39,00,,,,,,,,,,,,,,,
2020,11,26,08,40,00,,,,,,,,,,,,,,,
2020,11,26,08,41,00,,,,,,,,,,,,,,,
2020,11,26,08,42,00,,,,,,,,,,,,,,,
2020,11,26,08,43,00,,,,,,,,,,,,,,,
2020,11,26,08,44,00,,,,,,,,,,,,,,,
2020,11,26,08,45,00,,,,,,,,,,,,,,,
2020,11,26,08,46,00,,,,,,,,,,,,,,,
2020,11,26,08,47,00,,,,,,,,,,,,,,,
2020,11,26,08,48,00,,,,,,,,,,,,,,,
2020,11,26,08,49,00,,,,,,,,,,,,,,,
2020,11,26,08,50,00,,,,,,,,,,,,,,,
2020,11,26,08,51,00,,,,,,,,,,,,,,,
2020,11,26,08,52,00,,,,,,,,,,,,,,,
2020,11,26,08,53,00,,,,,,,,,,,,,,,
2020,11,26,08,54,00,,,,,,,,,,,,,,,
2020,11,26,08,55,00,,,,,,,,,,,,,,,
2020,11,26,08,56,00,,,,,,,,,,,,,,,
2020,11,26,08,57,00,,,,,,,,,,,,,,,
2020,11,26,08,58,00,,,,,,,,,,,,,,,
2020,11,26,08,59,00,,,,,,,,,,,,,,,
2020,11,26,09,00,00,,,,,,,,,,,,,,,
2020,11,26,09,01,00,,,,,,,,,,,,,,,
2020,11,26,09,02,00,,,,,,,,,,,,,,,
2020,11,26,09,03,00,,,,,,,,,,,,,,,
2020,11,26,09,04,00,,,,,,,,,,,,,,,
2020,11,26,09,05,00,,,,,,,,,,,,,,,
2020,11,26,09,06,00,,,,,,,,,,,,,,,
2020,11,26,09,07,00,,,,,,,,,,,,,,,
2020,11,26,09,08,00,,,,,,,,,,,,,,,
2020,11,26,09,09,00,,,,,,,,,,,,,,,
2020,11,26,09,10,00,,,,,,,,,,,,,,,
2020,11,26,09,11,00,,,,,,,,,,,,,,,
2020,11,26,09,12,00,,,,,,,,,,,,,,,
2020,11,26,09,13,00,,,,,,,,,,,,,,,
2020,11,26,09,14,00,,,,,,,,,,,,,,,
2020,11,26,09,15,00,,,,,,,,,,,,,,,
2020,11,26,09,16,00,,,,,,,,,,,,,,,
2020,11,26,09,17,00,,,,,,,,,,,,,,,
2020,11,26,09,18,00,,,,,,,,,,,,,,,
2020,11,26,09,19,00,,,,,,,,,,,,,,,
2020,11,26,09,20,00,,,,,,,,,,,,,,,
2020,11,26,09,21,00,,,,,,,,,,,,,,,
2020,11,26,09,22,00,,,,,,,,,,,,,,,
2020,11,26,09,23,00,,,,,,,,,,,,,,,
2020,11,26,09,24,00,,,,,,,,,,,,,,,
2020,11,26,09,25,00,,,,,,,,,,,,,,,
2020,11,26,09,26,00,,,,,,,,,,,,,,,
2020,11,26,09,27,00,,,,,,,,,,,,,,,
2020,11,26,09,28,00,,,,,,,,,,,,,,,
2020,11,26,09,29,00,,,,,,,,,,,,,,,
2020,11,26,09,30,00,,,,,,,,,,,,,,,
2020,11,26,09,31,00,,,,,,,,,,,,,,,
2020,11,26,09,32,00,,,,,,,,,,,,,,,
2020,11,26,09,33,00,,,,,,,,,,,,,,,
2020,11,26,09,34,00,,,,,,,,,,,,,,,
2020,11,26,09,35,00,,,,,,,,,,,,,,,
2020,11,26,09,36,00,,,,,,,,,,,,,,,
2020,11,26,09,37,00,,,,,,,,,,,,,,,
2020,11,26,09,38,00,,,,,,,,,,,,,,,
2020,11,26,09,39,00,,,,,,,,,,,,,,,
2020,11,26,09,40,00,,,,,,,,,,,,,,,
2020,11,26,09,41,00,,,,,,,,,,,,,,,
2020,11,26,09,42,00,,,,,,,,,,,,,,,
2020,11,26,09,43,00,,,,,,,,,,,,,,,
2020,11,26,09,44,00,,,,,,,,,,,,,,,
2020,11,26,09,45,00,,,,,,,,,,,,,,,
2020,11,26,09,46,00,,,,,,,,,,,,,,,
2020,11,26,09,47,00,,,,,,,,,,,,,,,
2020,11,26,09,48,00,,,,,,,,,,,,,,,
2020,11,26,09,49,00,,,,,,,,,,,,,,,
2020,11,26,09,50,00,,,,,,,,,,,,,,,
2020,11,26,09,51,00,,,,,,,,,,,,,,,
2020,11,26,09,52,00,,,,,,,,,,,,,,,
2020,11,26,09,53,00,,,,,,,,,,,,,,,
2020,11,26,09,54,00,,,,,,,,,,,,,,,
2020,11,26,09,55,00,,,,,,,,,,,,,,,
2020,11,26,09,56,00,,,,,,,,,,,,,,,
2020,11,26,09,57,00,,,,,,,,,,,,,,,
2020,11,26,09,58,00,,,,,,,,,,,,,,,
2020,11,26,09,59,00,,,,,,,,,,,,,,,
2020,11,26,10,00,00,,,,,,,,,,,,,,,
2020,11,26,10,01,00,,,,,,,,,,,,,,,
2020,11,26,10,02,00,,,,,,,,,,,,,,,
2020,11,26,10,03,00,,,,,,,,,,,,,,,
2020,11,26,10,04,00,,,,,,,,,,,,,,,
2020,11,26,10,05,00,,,,,,,,,,,,,,,
2020,11,26,10,06,00,,,,,,,,,,,,,,,
2020,11,26,10,07,00,,,,,,,,,,,,,,,
2020,11,26,10,08,00,,,,,,,,,,,,,,,
2020,11,26,10,09,00,,,,,,,,,,,,,,,
2020,11,26,10,10,00,,,,,,,,,,,,,,,
2020,11,26,10,11,00,,,,,,,,,,,,,,,